DAL811 KLAX-KMIA

Flight info

Callsign DAL811
Flight time N/A
Altitude 31000
Route DOTSS2 CNERY BLH SALOM EWM/N0454F330 CRGER IAH J86 LEV/N0453F350 BACCA Y290 GAWKS FROGZ5
Aircraft A321/M-SDE3FGHIRWY/LB1

Departure

Time 2026-05-08 04:09
Airport Los Angeles International Airport (KLAX)

Arrival

Time N/A
Airport Miami International Airport (KMIA)
Time Latitude Longitude Altitude Speed Heading
2026-05-08 03:42 33.94637 -118.40839 126 ft 0 kts 86°
2026-05-08 03:54 33.94637 -118.40840 125 ft 1 kts 86°
2026-05-08 03:54 33.94636 -118.40858 122 ft 3 kts 81°
2026-05-08 03:54 33.94631 -118.40881 125 ft 3 kts 62°
2026-05-08 03:55 33.94621 -118.40897 125 ft 3 kts 21°
2026-05-08 03:55 33.94611 -118.40900 125 ft 0 kts 353°
2026-05-08 03:59 33.94630 -118.40903 125 ft 6 kts 353°
2026-05-08 03:59 33.94668 -118.40908 123 ft 5 kts 353°
2026-05-08 04:00 33.94694 -118.40912 125 ft 3 kts 353°
2026-05-08 04:00 33.94711 -118.40915 125 ft 2 kts 353°
2026-05-08 04:00 33.94726 -118.40916 125 ft 3 kts
2026-05-08 04:00 33.94755 -118.40900 125 ft 6 kts 26°
2026-05-08 04:01 33.94807 -118.40886 125 ft 8 kts 15°
2026-05-08 04:01 33.94840 -118.40835 125 ft 8 kts 81°
2026-05-08 04:01 33.94848 -118.40758 125 ft 12 kts 83°
2026-05-08 04:01 33.94859 -118.40635 125 ft 17 kts 84°
2026-05-08 04:02 33.94872 -118.40502 125 ft 15 kts 80°
2026-05-08 04:02 33.94886 -118.40387 125 ft 13 kts 83°
2026-05-08 04:02 33.94895 -118.40285 125 ft 11 kts 84°
2026-05-08 04:02 33.94902 -118.40198 125 ft 10 kts 84°
2026-05-08 04:03 33.94910 -118.40124 125 ft 8 kts 80°
2026-05-08 04:03 33.94928 -118.40011 125 ft 8 kts 79°
2026-05-08 04:03 33.94937 -118.39952 125 ft 6 kts 79°
2026-05-08 04:04 33.94950 -118.39932 125 ft 0 kts 46°
2026-05-08 04:07 33.94966 -118.39918 125 ft 5 kts 30°
2026-05-08 04:07 33.94993 -118.39913 125 ft 4 kts 358°
2026-05-08 04:07 33.95020 -118.39915 125 ft 4 kts 358°
2026-05-08 04:08 33.95042 -118.39924 125 ft 2 kts 309°
2026-05-08 04:08 33.95043 -118.39943 125 ft 3 kts 273°
2026-05-08 04:08 33.95032 -118.40037 125 ft 34 kts 262°
2026-05-08 04:08 33.94971 -118.40637 126 ft 107 kts 263°
2026-05-08 04:09 33.94854 -118.41771 127 ft 164 kts 263°
2026-05-08 04:09 33.94710 -118.43276 410 ft 185 kts 264°
2026-05-08 04:09 33.94584 -118.44784 1316 ft 178 kts 264°
2026-05-08 04:09 33.94456 -118.46271 1949 ft 180 kts 263°
2026-05-08 04:10 33.94354 -118.47765 2366 ft 181 kts 267°
2026-05-08 04:10 33.94293 -118.49304 2594 ft 192 kts 268°
2026-05-08 04:10 33.94236 -118.50951 2832 ft 202 kts 267°
2026-05-08 04:10 33.94122 -118.52686 3044 ft 215 kts 266°
2026-05-08 04:11 33.93973 -118.54574 3163 ft 237 kts 265°
2026-05-08 04:11 33.93803 -118.56637 3324 ft 258 kts 265°
2026-05-08 04:11 33.93621 -118.58821 3803 ft 265 kts 265°
2026-05-08 04:11 33.93308 -118.61015 4398 ft 269 kts 249°
2026-05-08 04:12 33.92276 -118.62893 4989 ft 273 kts 222°
2026-05-08 04:12 33.90611 -118.63996 5551 ft 279 kts 194°
2026-05-08 04:12 33.88661 -118.64113 6092 ft 284 kts 178°
2026-05-08 04:12 33.86681 -118.63965 6650 ft 286 kts 178°
2026-05-08 04:13 33.84694 -118.63646 7172 ft 291 kts 166°
2026-05-08 04:13 33.82818 -118.62722 7662 ft 296 kts 150°
2026-05-08 04:13 33.81229 -118.61436 8115 ft 299 kts 146°
2026-05-08 04:13 33.79503 -118.60009 8605 ft 302 kts 147°
2026-05-08 04:14 33.77759 -118.58584 9073 ft 304 kts 147°
2026-05-08 04:14 33.75992 -118.57156 9541 ft 307 kts 147°
2026-05-08 04:14 33.74215 -118.55726 10035 ft 308 kts 147°
2026-05-08 04:14 33.72423 -118.54248 10277 ft 320 kts 142°
2026-05-08 04:15 33.70759 -118.52391 10412 ft 335 kts 131°
2026-05-08 04:15 33.69357 -118.50084 10542 ft 349 kts 119°
2026-05-08 04:15 33.68323 -118.47391 10685 ft 362 kts 108°
2026-05-08 04:15 33.67486 -118.44505 11073 ft 367 kts 108°
2026-05-08 04:16 33.66650 -118.41653 11566 ft 368 kts 108°
2026-05-08 04:16 33.65794 -118.38754 12126 ft 369 kts 108°
2026-05-08 04:16 33.64960 -118.35846 12712 ft 369 kts 104°
2026-05-08 04:16 33.64497 -118.32822 13245 ft 369 kts 93°
2026-05-08 04:17 33.64457 -118.29744 13746 ft 370 kts 88°
2026-05-08 04:17 33.64466 -118.26641 14245 ft 373 kts 88°
2026-05-08 04:17 33.64472 -118.23516 14734 ft 375 kts 89°
2026-05-08 04:17 33.64476 -118.20370 15210 ft 378 kts 89°
2026-05-08 04:18 33.64477 -118.17208 15684 ft 380 kts 89°
2026-05-08 04:18 33.64476 -118.14017 16140 ft 383 kts 89°
2026-05-08 04:18 33.64470 -118.10815 16587 ft 385 kts 89°
2026-05-08 04:18 33.64464 -118.07588 17024 ft 388 kts 89°
2026-05-08 04:19 33.64460 -118.04342 17455 ft 390 kts 89°
2026-05-08 04:19 33.64455 -118.01086 17879 ft 392 kts 89°
2026-05-08 04:19 33.64450 -117.97805 18278 ft 394 kts 88°
2026-05-08 04:19 33.64446 -117.94505 18683 ft 396 kts 88°
2026-05-08 04:20 33.64442 -117.91192 19068 ft 398 kts 88°
2026-05-08 04:20 33.64434 -117.87901 19426 ft 401 kts 88°
2026-05-08 04:20 33.64426 -117.84547 19799 ft 403 kts 88°
2026-05-08 04:20 33.64390 -117.81179 20150 ft 406 kts 92°
2026-05-08 04:21 33.63979 -117.77807 20491 ft 411 kts 102°
2026-05-08 04:21 33.63193 -117.74501 20830 ft 414 kts 104°
2026-05-08 04:21 33.62371 -117.71174 21150 ft 417 kts 104°
2026-05-08 04:21 33.61542 -117.67833 21489 ft 419 kts 104°
2026-05-08 04:22 33.60710 -117.64476 21816 ft 421 kts 104°
2026-05-08 04:22 33.59876 -117.61101 22142 ft 423 kts 104°
2026-05-08 04:22 33.59038 -117.57706 22452 ft 425 kts 104°
2026-05-08 04:22 33.58195 -117.54297 22766 ft 427 kts 104°
2026-05-08 04:23 33.57345 -117.50871 23065 ft 429 kts 104°
2026-05-08 04:23 33.56491 -117.47432 23374 ft 431 kts 104°
2026-05-08 04:23 33.55632 -117.43972 23672 ft 433 kts 104°
2026-05-08 04:23 33.54770 -117.40506 23946 ft 435 kts 104°
2026-05-08 04:24 33.53901 -117.37024 24238 ft 437 kts 104°
2026-05-08 04:24 33.53025 -117.33524 24536 ft 439 kts 104°
2026-05-08 04:24 33.52149 -117.30016 24831 ft 440 kts 104°
2026-05-08 04:24 33.51271 -117.26493 25123 ft 442 kts 103°
2026-05-08 04:25 33.50616 -117.22916 25387 ft 440 kts 94°
2026-05-08 04:25 33.50426 -117.19274 25652 ft 438 kts 88°
2026-05-08 04:25 33.50392 -117.15659 25930 ft 439 kts 88°
2026-05-08 04:25 33.50350 -117.11996 26199 ft 441 kts 88°
2026-05-08 04:26 33.50300 -117.08322 26460 ft 442 kts 88°
2026-05-08 04:26 33.50245 -117.04635 26723 ft 443 kts 88°
2026-05-08 04:26 33.50189 -117.00940 26967 ft 444 kts 88°
2026-05-08 04:26 33.50133 -116.97235 27210 ft 446 kts 88°
2026-05-08 04:27 33.50077 -116.93514 27447 ft 447 kts 88°
2026-05-08 04:27 33.50021 -116.89791 27672 ft 448 kts 88°
2026-05-08 04:27 33.49964 -116.86055 27887 ft 449 kts 88°
2026-05-08 04:27 33.49908 -116.82308 28117 ft 450 kts 88°
2026-05-08 04:28 33.49851 -116.78551 28330 ft 451 kts 88°
2026-05-08 04:28 33.49791 -116.74792 28546 ft 452 kts 88°
2026-05-08 04:28 33.49731 -116.71021 28764 ft 453 kts 88°
2026-05-08 04:28 33.49667 -116.67242 28970 ft 454 kts 88°
2026-05-08 04:29 33.49600 -116.63451 29165 ft 455 kts 88°
2026-05-08 04:29 33.49531 -116.59660 29418 ft 455 kts 88°
2026-05-08 04:29 33.49463 -116.55876 29726 ft 453 kts 88°
2026-05-08 04:29 33.49394 -116.52111 30022 ft 452 kts 88°
2026-05-08 04:30 33.49325 -116.48400 30279 ft 451 kts 88°
2026-05-08 04:30 33.49254 -116.44644 30532 ft 450 kts 88°
2026-05-08 04:30 33.49186 -116.40901 30784 ft 449 kts 88°
2026-05-08 04:30 33.49127 -116.37170 31019 ft 448 kts 88°
2026-05-08 04:31 33.49075 -116.33440 31245 ft 448 kts 87°
2026-05-08 04:31 33.49026 -116.29710 31480 ft 448 kts 87°
2026-05-08 04:31 33.48975 -116.25984 31718 ft 447 kts 87°
2026-05-08 04:31 33.48922 -116.22260 31954 ft 447 kts 87°
2026-05-08 04:32 33.48867 -116.18536 32172 ft 447 kts 87°
2026-05-08 04:32 33.48808 -116.14823 32408 ft 446 kts 87°
2026-05-08 04:32 33.48746 -116.11108 32615 ft 446 kts 87°
2026-05-08 04:32 33.48686 -116.07398 32809 ft 446 kts 86°
2026-05-08 04:33 33.49558 -116.00190 32878 ft 432 kts 69°
2026-05-08 04:33 33.51537 -115.93421 32879 ft 429 kts 67°
2026-05-08 04:34 33.53501 -115.86726 32877 ft 429 kts 67°
2026-05-08 04:34 33.55464 -115.79978 32878 ft 429 kts 67°
2026-05-08 04:35 33.57434 -115.73218 32878 ft 429 kts 67°
2026-05-08 04:35 33.59397 -115.66464 32878 ft 429 kts 68°
2026-05-08 04:36 33.61311 -115.59692 32876 ft 430 kts 73°
2026-05-08 04:36 33.61717 -115.56128 32875 ft 436 kts 86°
2026-05-08 04:36 33.61647 -115.52481 32872 ft 437 kts 88°
2026-05-08 04:37 33.61468 -115.45185 32864 ft 438 kts 88°
2026-05-08 04:37 33.61279 -115.37891 32865 ft 438 kts 88°
2026-05-08 04:38 33.61094 -115.30586 32869 ft 438 kts 87°
2026-05-08 04:38 33.60911 -115.23329 32871 ft 438 kts 87°
2026-05-08 04:39 33.60722 -115.16025 32872 ft 438 kts 88°
2026-05-08 04:39 33.60530 -115.08723 32874 ft 438 kts 88°
2026-05-08 04:40 33.60332 -115.01429 32877 ft 438 kts 88°
2026-05-08 04:40 33.60162 -114.95314 32879 ft 438 kts 88°
2026-05-08 04:41 33.59956 -114.88061 32880 ft 437 kts 88°
2026-05-08 04:41 33.59748 -114.80771 32883 ft 437 kts 88°
2026-05-08 04:42 33.59476 -114.73486 32880 ft 438 kts 90°
2026-05-08 04:42 33.58857 -114.66207 32882 ft 439 kts 92°
2026-05-08 04:43 33.58108 -114.58930 32880 ft 439 kts 92°
2026-05-08 04:43 33.57408 -114.51657 32878 ft 439 kts 92°
2026-05-08 04:44 33.56757 -114.44372 32878 ft 439 kts 91°
2026-05-08 04:44 33.56112 -114.37101 32878 ft 439 kts 92°
2026-05-08 04:45 33.55455 -114.29876 32879 ft 439 kts 92°
2026-05-08 04:45 33.54780 -114.22609 32879 ft 439 kts 92°
2026-05-08 04:46 33.54102 -114.15295 32903 ft 439 kts 92°
2026-05-08 04:46 33.53427 -114.08081 32896 ft 439 kts 92°
2026-05-08 04:47 33.52753 -114.00820 32892 ft 438 kts 92°
2026-05-08 04:47 33.52072 -113.93559 32902 ft 438 kts 92°
2026-05-08 04:48 33.51186 -113.86333 32895 ft 441 kts 97°
2026-05-08 04:48 33.49937 -113.79143 32898 ft 441 kts 97°
2026-05-08 04:49 33.48701 -113.71953 32901 ft 441 kts 97°
2026-05-08 04:49 33.47449 -113.64765 32890 ft 440 kts 97°
2026-05-08 04:50 33.46192 -113.57595 32899 ft 440 kts 97°
2026-05-08 04:50 33.44942 -113.50429 32904 ft 439 kts 97°
2026-05-08 04:51 33.43697 -113.43274 32902 ft 439 kts 97°
2026-05-08 04:51 33.42439 -113.36128 32903 ft 438 kts 97°
2026-05-08 04:52 33.41176 -113.28992 32908 ft 438 kts 97°
2026-05-08 04:52 33.39916 -113.21862 32917 ft 438 kts 97°
2026-05-08 04:53 33.38646 -113.14732 32922 ft 438 kts 97°
2026-05-08 04:53 33.37371 -113.07619 32928 ft 437 kts 97°
2026-05-08 04:54 33.36106 -113.00556 32931 ft 437 kts 97°
2026-05-08 04:54 33.34831 -112.93444 32931 ft 437 kts 97°
2026-05-08 04:55 33.33554 -112.86346 32939 ft 437 kts 97°
2026-05-08 04:55 33.32274 -112.79257 32940 ft 436 kts 97°
2026-05-08 04:56 33.30984 -112.72189 32941 ft 435 kts 97°
2026-05-08 04:56 33.29694 -112.65125 32941 ft 435 kts 97°
2026-05-08 04:57 33.28400 -112.58061 32942 ft 435 kts 97°
2026-05-08 04:57 33.27106 -112.51011 32940 ft 434 kts 97°
2026-05-08 04:58 33.25812 -112.43963 32932 ft 434 kts 97°
2026-05-08 04:58 33.24510 -112.36933 32929 ft 433 kts 98°
2026-05-08 04:59 33.23207 -112.29908 32924 ft 433 kts 97°
2026-05-08 04:59 33.21906 -112.22888 32920 ft 432 kts 98°
2026-05-08 05:00 33.20597 -112.15873 32914 ft 433 kts 98°
2026-05-08 05:00 33.19291 -112.08910 32916 ft 433 kts 98°
2026-05-08 05:01 33.17971 -112.01908 32915 ft 432 kts 98°
2026-05-08 05:01 33.16652 -111.94903 32923 ft 433 kts 98°
2026-05-08 05:02 33.15330 -111.87889 32923 ft 433 kts 98°
2026-05-08 05:02 33.14003 -111.80867 32924 ft 434 kts 99°
2026-05-08 05:03 33.12665 -111.73827 32928 ft 435 kts 99°
2026-05-08 05:03 33.11316 -111.66778 32934 ft 435 kts 99°
2026-05-08 05:04 33.09966 -111.59735 32937 ft 436 kts 99°
2026-05-08 05:04 33.08620 -111.52691 32941 ft 436 kts 99°
2026-05-08 05:05 33.07261 -111.45639 32941 ft 436 kts 99°
2026-05-08 05:05 33.05900 -111.38641 32942 ft 437 kts 99°
2026-05-08 05:06 33.04526 -111.31586 32944 ft 437 kts 99°
2026-05-08 05:06 33.03149 -111.24519 32946 ft 438 kts 99°
2026-05-08 05:07 33.01768 -111.17442 32950 ft 438 kts 100°
2026-05-08 05:07 33.00387 -111.10365 32958 ft 439 kts 100°
2026-05-08 05:08 32.99002 -111.03278 32960 ft 439 kts 100°
2026-05-08 05:08 32.97603 -110.96189 32977 ft 440 kts 101°
2026-05-08 05:09 32.96195 -110.89093 33000 ft 441 kts 101°
2026-05-08 05:09 32.94785 -110.82005 33011 ft 442 kts 101°
2026-05-08 05:10 32.92652 -110.71330 33029 ft 442 kts 101°
2026-05-08 05:11 32.91236 -110.64201 33047 ft 443 kts 101°
2026-05-08 05:11 32.89828 -110.57109 33060 ft 444 kts 102°
2026-05-08 05:12 32.88381 -110.49951 33066 ft 445 kts 102°
2026-05-08 05:12 32.86922 -110.42789 33067 ft 445 kts 102°
2026-05-08 05:13 32.85466 -110.35627 33065 ft 446 kts 102°
2026-05-08 05:13 32.84014 -110.28447 33061 ft 447 kts 103°
2026-05-08 05:14 32.82554 -110.21261 33058 ft 448 kts 103°
2026-05-08 05:14 32.81085 -110.14058 33052 ft 448 kts 103°
2026-05-08 05:15 32.79607 -110.06850 33044 ft 449 kts 103°
2026-05-08 05:15 32.78122 -109.99642 33034 ft 449 kts 103°
2026-05-08 05:16 32.76632 -109.92428 33053 ft 449 kts 104°
2026-05-08 05:16 32.75147 -109.85252 33057 ft 446 kts 105°
2026-05-08 05:17 32.73664 -109.78098 33012 ft 447 kts 105°
2026-05-08 05:17 32.72172 -109.70949 32975 ft 450 kts 105°
2026-05-08 05:18 32.70660 -109.63714 32974 ft 453 kts 105°
2026-05-08 05:18 32.69133 -109.56436 32982 ft 455 kts 105°
2026-05-08 05:19 32.67595 -109.49135 32987 ft 457 kts 106°
2026-05-08 05:19 32.66053 -109.41821 33002 ft 457 kts 106°
2026-05-08 05:20 32.64507 -109.34488 33007 ft 458 kts 106°
2026-05-08 05:20 32.62945 -109.27154 33015 ft 459 kts 106°
2026-05-08 05:21 32.61383 -109.19803 33022 ft 460 kts 106°
2026-05-08 05:21 32.59815 -109.12439 33033 ft 460 kts 107°
2026-05-08 05:22 32.58244 -109.05119 33038 ft 462 kts 107°
2026-05-08 05:22 32.56656 -108.97729 33049 ft 463 kts 107°
2026-05-08 05:23 32.55062 -108.90335 33054 ft 464 kts 108°
2026-05-08 05:23 32.53460 -108.82912 33054 ft 465 kts 108°
2026-05-08 05:24 32.51847 -108.75475 33056 ft 467 kts 108°
2026-05-08 05:24 32.50226 -108.68020 33056 ft 468 kts 109°
2026-05-08 05:25 32.48593 -108.60537 33057 ft 470 kts 110°
2026-05-08 05:25 32.46950 -108.53031 33060 ft 472 kts 110°
2026-05-08 05:26 32.45309 -108.45544 33061 ft 473 kts 110°
2026-05-08 05:26 32.43650 -108.37985 33066 ft 475 kts 111°
2026-05-08 05:27 32.41973 -108.30394 33076 ft 478 kts 111°
2026-05-08 05:27 32.40276 -108.22777 33080 ft 479 kts 112°
2026-05-08 05:28 32.38860 -108.16422 33082 ft 481 kts 112°
2026-05-08 05:28 32.37154 -108.08747 33086 ft 482 kts 112°
2026-05-08 05:29 32.35445 -108.01070 33085 ft 483 kts 112°
2026-05-08 05:29 32.33719 -107.93378 33077 ft 484 kts 113°
2026-05-08 05:30 32.31986 -107.85668 33071 ft 485 kts 113°
2026-05-08 05:30 32.30243 -107.77954 33067 ft 486 kts 113°
2026-05-08 05:31 32.28512 -107.70291 33066 ft 486 kts 113°
2026-05-08 05:31 32.26771 -107.62583 33068 ft 486 kts 113°
2026-05-08 05:32 32.25012 -107.54865 33068 ft 486 kts 113°
2026-05-08 05:32 32.23251 -107.47159 33064 ft 486 kts 112°
2026-05-08 05:33 32.21488 -107.39460 33070 ft 486 kts 112°
2026-05-08 05:33 32.19720 -107.31761 33072 ft 486 kts 112°
2026-05-08 05:34 32.17951 -107.24072 33077 ft 485 kts 112°
2026-05-08 05:34 32.16175 -107.16395 33076 ft 485 kts 112°
2026-05-08 05:35 32.14399 -107.08726 33076 ft 484 kts 112°
2026-05-08 05:35 32.12617 -107.01059 33073 ft 484 kts 112°
2026-05-08 05:36 32.10834 -106.93456 33065 ft 484 kts 112°
2026-05-08 05:36 32.09038 -106.85796 33062 ft 485 kts 112°
2026-05-08 05:37 32.07242 -106.78121 33058 ft 486 kts 112°
2026-05-08 05:37 32.05440 -106.70426 33052 ft 486 kts 113°
2026-05-08 05:38 32.03624 -106.62751 33050 ft 487 kts 113°
2026-05-08 05:38 32.01804 -106.55041 33051 ft 488 kts 113°
2026-05-08 05:39 31.99979 -106.47339 33044 ft 488 kts 113°
2026-05-08 05:39 31.98157 -106.39683 33032 ft 489 kts 114°
2026-05-08 05:40 31.96305 -106.31967 33025 ft 490 kts 114°
2026-05-08 05:40 31.94672 -106.24125 33029 ft 497 kts 108°
2026-05-08 05:41 31.93435 -106.16112 33027 ft 498 kts 108°
2026-05-08 05:41 31.92181 -106.08090 33031 ft 498 kts 108°